Location: Buch
(50.1863°N, 11.0141°E)
Time: 16:09:31
(UTC+00:00)

BREEZE M DEB (TANK) - Pass Details

Date: 18 January 2020
Orbit: 321 x 13662 km, 49.5° (Epoch: 20 February)

Event Time Altitude Azimuth Distance (km) Brightness Sun altitude
Exits shadow 06:03:42 - 238° (WSW) 1,860 5.2 -10.0°
Reaches altitude 10° 06:04:27 10° 235° (SW) 1,501 4.7 -9.8°
Maximum altitude 06:07:16 57° 154° (SSE) 743 3.7 -9.4°
Drops below altitude 10° 06:14:32 10° 77° (ENE) 3,797 8.0 -8.3°
Sets 06:20:22 0° 76° (ENE) 6,332 9.1 -7.5°
